^^
Saratoga-Weather Station Historical Data
Daily Summary for August 08, 2022 Units:  Metric    English   Both
Daily Weekly Monthly Yearly Custom
  High: Low: Average:
Temperature: 30.6 °C 16.8 °C 23.5 °C
Dew Point: 11.1 °C 7.4 °C 9.5 °C
Humidity: 60% 28% 43%
Wind Speed: 14.3km/h 0km/h 3.7km/h
Wind Gust: 24.1km/h - -
Wind- - SW
Pressure: 1021.7 hPa 1019.3 hPa -
Precipitation: 0.0 mm    
Historical Graphs
 
 
Tabular Data for August 08, 2022
Time Temperature Dew Point Pressure Wind Wind Speed Wind Gust Humidity Rainfall Rate (Hourly) solar
00:00 20.4 °C 7.4 °C 1020.0 hPa North 3.2 km/h 8 km/h 43% 0.0 mm 0 W/m2
00:05 20.4 °C 7.4 °C 1020.0 hPa West 3.2 km/h 6.4 km/h 43% 0.0 mm 0 W/m2
00:10 20.4 °C 7.4 °C 1020.0 hPa West 1.4 km/h 6.4 km/h 43% 0.0 mm 0 W/m2
00:15 20.4 °C 7.4 °C 1020.0 hPa West 9.7 km/h 11.3 km/h 43% 0.0 mm 0 W/m2
00:20 20.4 °C 7.4 °C 1020.0 hPa West 4.7 km/h 11.3 km/h 43% 0.0 mm 0 W/m2
00:25 20.4 °C 7.4 °C 1020.0 hPa West 9.7 km/h 14.5 km/h 43% 0.0 mm 0 W/m2
00:30 20.3 °C 7.6 °C 1020.3 hPa WSW 6.4 km/h 9.7 km/h 44% 0.0 mm 0 W/m2
00:35 20.3 °C 7.6 °C 1020.3 hPa NNW 3.2 km/h 9.7 km/h 44% 0.0 mm 0 W/m2
00:40 20.2 °C 7.6 °C 1020.3 hPa West 4.7 km/h 9.7 km/h 44% 0.0 mm 0 W/m2
00:45 20.2 °C 7.9 °C 1020.3 hPa NW 3.2 km/h 11.3 km/h 45% 0.0 mm 0 W/m2
00:50 20.1 °C 7.8 °C 1020.3 hPa West 4.7 km/h 6.4 km/h 45% 0.0 mm 0 W/m2
00:55 20.1 °C 7.8 °C 1020.3 hPa North 4.7 km/h 9.7 km/h 45% 0.0 mm 0 W/m2
01:00 20.1 °C 7.8 °C 1020.3 hPa WNW 3.2 km/h 6.4 km/h 45% 0.0 mm 0 W/m2
01:05 20 °C 8 °C 1020.3 hPa West 1.4 km/h 4.8 km/h 46% 0.0 mm 0 W/m2
01:10 19.9 °C 7.9 °C 1020.3 hPa West 6.4 km/h 8 km/h 46% 0.0 mm 0 W/m2
01:15 19.8 °C 7.8 °C 1020.3 hPa NW 3.2 km/h 8 km/h 46% 0.0 mm 0 W/m2
01:20 19.7 °C 8.1 °C 1020.3 hPa NW 6.4 km/h 14.5 km/h 47% 0.0 mm 0 W/m2
01:25 19.7 °C 8.4 °C 1020.3 hPa West 4.7 km/h 12.9 km/h 48% 0.0 mm 0 W/m2
01:30 19.6 °C 8.3 °C 1020.3 hPa WSW 3.2 km/h 9.7 km/h 48% 0.0 mm 0 W/m2
01:35 19.6 °C 8.6 °C 1020.3 hPa West 3.2 km/h 11.3 km/h 49% 0.0 mm 0 W/m2
01:40 19.5 °C 8.5 °C 1020.3 hPa WNW 6.4 km/h 9.7 km/h 49% 0.0 mm 0 W/m2
01:45 19.4 °C 8.4 °C 1020.3 hPa West 4.7 km/h 6.4 km/h 49% 0.0 mm 0 W/m2
01:50 19.3 °C 8.6 °C 1020.3 hPa West 4.7 km/h 12.9 km/h 50% 0.0 mm 0 W/m2
01:55 19.3 °C 8.6 °C 1020.3 hPa West 4.7 km/h 9.7 km/h 50% 0.0 mm 0 W/m2
02:00 19.3 °C 8.6 °C 1020.3 hPa NW 3.2 km/h 6.4 km/h 50% 0.0 mm 0 W/m2
02:05 19.2 °C 8.8 °C 1020.3 hPa NNW 6.4 km/h 6.4 km/h 51% 0.0 mm 0 W/m2
02:10 19.2 °C 8.8 °C 1020.3 hPa WNW 4.7 km/h 9.7 km/h 51% 0.0 mm 0 W/m2
02:15 19.1 °C 8.7 °C 1020.3 hPa WNW 6.4 km/h 11.3 km/h 51% 0.0 mm 0 W/m2
02:20 19 °C 8.9 °C 1020.3 hPa South 3.2 km/h 6.4 km/h 52% 0.0 mm 0 W/m2
02:25 18.9 °C 8.8 °C 1020.3 hPa NW 3.2 km/h 6.4 km/h 52% 0.0 mm 0 W/m2
02:30 18.8 °C 8.7 °C 1020.3 hPa WSW 7.9 km/h 12.9 km/h 52% 0.0 mm 0 W/m2
02:35 18.8 °C 8.7 °C 1020.3 hPa West 3.2 km/h 8 km/h 52% 0.0 mm 0 W/m2
02:40 18.8 °C 9 °C 1020.3 hPa SW 1.4 km/h 12.9 km/h 53% 0.0 mm 0 W/m2
02:45 18.7 °C 8.9 °C 1020.3 hPa West 3.2 km/h 6.4 km/h 53% 0.0 mm 0 W/m2
02:50 18.6 °C 9.1 °C 1020.3 hPa South 3.2 km/h 4.8 km/h 54% 0.0 mm 0 W/m2
02:55 18.4 °C 8.9 °C 1020.3 hPa NE 4.7 km/h 6.4 km/h 54% 0.0 mm 0 W/m2
03:00 18.3 °C 9.1 °C 1020.0 hPa Calm   3.2 km/h 55% 0.0 mm 0 W/m2
03:05 18.2 °C 8.7 °C 1020.0 hPa WSW 1.4 km/h 3.2 km/h 54% 0.0 mm 0 W/m2
03:10 18.2 °C 9 °C 1020.0 hPa WSW 3.2 km/h 8 km/h 55% 0.0 mm 0 W/m2
03:15 18.1 °C 8.9 °C 1020.3 hPa NNW 4.7 km/h 4.8 km/h 55% 0.0 mm 0 W/m2
03:20 18.1 °C 8.9 °C 1020.3 hPa WNW 3.2 km/h 4.8 km/h 55% 0.0 mm 0 W/m2
03:25 18.1 °C 8.9 °C 1020.3 hPa North 1.4 km/h 8 km/h 55% 0.0 mm 0 W/m2
03:30 18.1 °C 8.9 °C 1020.3 hPa Calm   1.6 km/h 55% 0.0 mm 0 W/m2
03:35 18 °C 9.1 °C 1020.3 hPa Calm   4.8 km/h 56% 0.0 mm 0 W/m2
03:40 17.8 °C 8.9 °C 1020.3 hPa WSW 3.2 km/h 3.2 km/h 56% 0.0 mm 0 W/m2
03:45 17.8 °C 8.9 °C 1020.3 hPa Calm   3.2 km/h 56% 0.0 mm 0 W/m2
03:50 17.7 °C 9.1 °C 1020.3 hPa West 1.4 km/h 3.2 km/h 57% 0.0 mm 0 W/m2
03:55 17.6 °C 9 °C 1020.3 hPa WSW 1.4 km/h 3.2 km/h 57% 0.0 mm 0 W/m2
04:00 17.5 °C 8.9 °C 1020.3 hPa WSW 4.7 km/h 4.8 km/h 57% 0.0 mm 0 W/m2
04:05 17.5 °C 8.9 °C 1020.3 hPa WSW 3.2 km/h 4.8 km/h 57% 0.0 mm 0 W/m2
04:10 17.4 °C 9.1 °C 1020.3 hPa WSW 1.4 km/h 3.2 km/h 58% 0.0 mm 0 W/m2
04:15 17.4 °C 9.1 °C 1020.3 hPa Calm   4.8 km/h 58% 0.0 mm 0 W/m2
04:20 17.4 °C 9.1 °C 1020.3 hPa WSW 1.4 km/h 4.8 km/h 58% 0.0 mm 0 W/m2
04:25 17.3 °C 9 °C 1020.3 hPa WSW 1.4 km/h 1.6 km/h 58% 0.0 mm 0 W/m2
04:30 17.2 °C 9.1 °C 1020.3 hPa WSW 3.2 km/h 3.2 km/h 59% 0.0 mm 0 W/m2
04:35 17.2 °C 9.1 °C 1020.3 hPa SW 1.4 km/h 1.6 km/h 59% 0.0 mm 0 W/m2
04:40 17.1 °C 9 °C 1020.3 hPa Calm   4.8 km/h 59% 0.0 mm 0 W/m2
04:45 17.1 °C 9.3 °C 1020.3 hPa SSW 3.2 km/h 3.2 km/h 60% 0.0 mm 0 W/m2
04:50 17.1 °C 9 °C 1020.0 hPa Calm   1.6 km/h 59% 0.0 mm 0 W/m2
04:55 17.2 °C 9.1 °C 1020.0 hPa WNW 4.7 km/h 11.3 km/h 59% 0.0 mm 0 W/m2
05:00 17.2 °C 9.1 °C 1020.0 hPa WNW 3.2 km/h 3.2 km/h 59% 0.0 mm 0 W/m2
05:05 17.2 °C 8.9 °C 1020.0 hPa WNW 3.2 km/h 11.3 km/h 58% 0.0 mm 0 W/m2
05:10 17.2 °C 8.9 °C 1020.0 hPa West 3.2 km/h 3.2 km/h 58% 0.0 mm 0 W/m2
05:15 17.1 °C 9 °C 1020.0 hPa Calm   3.2 km/h 59% 0.0 mm 0 W/m2
05:20 16.9 °C 9.1 °C 1020.0 hPa WSW 4.7 km/h 4.8 km/h 60% 0.0 mm 0 W/m2
05:25 16.9 °C 9.1 °C 1020.0 hPa WNW 3.2 km/h 4.8 km/h 60% 0.0 mm 0 W/m2
05:30 16.9 °C 8.8 °C 1020.0 hPa WNW 4.7 km/h 6.4 km/h 59% 0.0 mm 0 W/m2
05:35 17 °C 8.9 °C 1020.3 hPa West 3.2 km/h 4.8 km/h 59% 0.0 mm 0 W/m2
05:40 16.9 °C 8.8 °C 1020.3 hPa West 3.2 km/h 6.4 km/h 59% 0.0 mm 0 W/m2
05:45 17 °C 8.9 °C 1020.3 hPa West 3.2 km/h 3.2 km/h 59% 0.0 mm 0 W/m2
05:50 16.9 °C 8.8 °C 1020.3 hPa West 1.4 km/h 4.8 km/h 59% 0.0 mm 0 W/m2
05:55 16.9 °C 9.1 °C 1020.3 hPa West 4.7 km/h 6.4 km/h 60% 0.0 mm 0 W/m2
06:00 16.8 °C 9 °C 1020.3 hPa WNW 3.2 km/h 3.2 km/h 60% 0.0 mm 0 W/m2
06:05 16.8 °C 8.7 °C 1020.3 hPa WNW 3.2 km/h 4.8 km/h 59% 0.0 mm 0 W/m2
06:10 16.9 °C 8.8 °C 1020.3 hPa West 1.4 km/h 9.7 km/h 59% 0.0 mm 0 W/m2
06:15 16.9 °C 8.8 °C 1020.3 hPa West 3.2 km/h 4.8 km/h 59% 0.0 mm 0 W/m2
06:20 16.9 °C 8.8 °C 1020.3 hPa West 1.4 km/h 9.7 km/h 59% 0.0 mm 5 W/m2
06:25 16.9 °C 8.8 °C 1020.7 hPa West 1.4 km/h 9.7 km/h 59% 0.0 mm 7 W/m2
06:30 16.9 °C 8.8 °C 1020.3 hPa SW 3.2 km/h 3.2 km/h 59% 0.0 mm 9 W/m2
06:35 16.9 °C 8.8 °C 1020.7 hPa Calm   3.2 km/h 59% 0.0 mm 11 W/m2
06:40 16.8 °C 9 °C 1020.7 hPa West 3.2 km/h 6.4 km/h 60% 0.0 mm 12 W/m2
06:45 16.8 °C 8.7 °C 1020.7 hPa WNW 3.2 km/h 4.8 km/h 59% 0.0 mm 16 W/m2
06:50 16.9 °C 8.8 °C 1020.7 hPa West 3.2 km/h 6.4 km/h 59% 0.0 mm 18 W/m2
06:55 17 °C 8.9 °C 1020.7 hPa West 1.4 km/h 3.2 km/h 59% 0.0 mm 19 W/m2
07:00 17 °C 8.9 °C 1020.7 hPa West 1.4 km/h 4.8 km/h 59% 0.0 mm 19 W/m2
07:05 17.1 °C 9 °C 1020.7 hPa Calm   4.8 km/h 59% 0.0 mm 21 W/m2
07:10 17.1 °C 9 °C 1020.7 hPa West 3.2 km/h 6.4 km/h 59% 0.0 mm 23 W/m2
07:15 17.1 °C 9 °C 1020.7 hPa NW 3.2 km/h 6.4 km/h 59% 0.0 mm 25 W/m2
07:21 17.2 °C 9.1 °C 1020.7 hPa NW 1.4 km/h 1.6 km/h 59% 0.0 mm 25 W/m2
07:26 17.2 °C 9.1 °C 1020.7 hPa SSW 1.4 km/h 1.6 km/h 59% 0.0 mm 26 W/m2
07:31 17.2 °C 9.1 °C 1021.0 hPa West 1.4 km/h 4.8 km/h 59% 0.0 mm 88 W/m2
07:36 17.4 °C 9.3 °C 1021.0 hPa NNW 3.2 km/h 4.8 km/h 59% 0.0 mm 100 W/m2
07:41 17.6 °C 9.2 °C 1021.0 hPa West 6.4 km/h 11.3 km/h 58% 0.0 mm 113 W/m2
07:46 17.7 °C 9.3 °C 1021.0 hPa NNW 1.4 km/h 4.8 km/h 58% 0.0 mm 130 W/m2
07:51 17.9 °C 9.3 °C 1021.0 hPa West 4.7 km/h 11.3 km/h 57% 0.0 mm 144 W/m2
07:56 18 °C 9.4 °C 1021.0 hPa West 1.4 km/h 6.4 km/h 57% 0.0 mm 162 W/m2
08:01 18.1 °C 9.2 °C 1021.0 hPa NNW 3.2 km/h 6.4 km/h 56% 0.0 mm 179 W/m2
08:06 18.2 °C 9.3 °C 1021.0 hPa North 3.2 km/h 6.4 km/h 56% 0.0 mm 193 W/m2
08:11 18.5 °C 9.6 °C 1021.0 hPa North 1.4 km/h 4.8 km/h 56% 0.0 mm 209 W/m2
08:16 18.7 °C 9.5 °C 1021.3 hPa NNW 4.7 km/h 8 km/h 55% 0.0 mm 197 W/m2
08:21 18.6 °C 9.4 °C 1021.3 hPa NW 1.4 km/h 8 km/h 55% 0.0 mm 118 W/m2
08:26 18.7 °C 9.5 °C 1021.3 hPa NNW 4.7 km/h 6.4 km/h 55% 0.0 mm 44 W/m2
08:31 18.8 °C 9.6 °C 1021.3 hPa West 3.2 km/h 6.4 km/h 55% 0.0 mm 39 W/m2
08:36 18.8 °C 9.6 °C 1021.3 hPa WNW 4.7 km/h 6.4 km/h 55% 0.0 mm 39 W/m2
08:41 18.8 °C 9.6 °C 1021.3 hPa WNW 6.4 km/h 9.7 km/h 55% 0.0 mm 39 W/m2
08:46 18.9 °C 9.9 °C 1021.3 hPa North 1.4 km/h 3.2 km/h 56% 0.0 mm 39 W/m2
08:51 19.2 °C 9.9 °C 1021.3 hPa ESE 3.2 km/h 9.7 km/h 55% 0.0 mm 39 W/m2
08:56 19.4 °C 9.9 °C 1021.3 hPa Calm   4.8 km/h 54% 0.0 mm 39 W/m2
09:01 19.4 °C 9.9 °C 1021.3 hPa NW 4.7 km/h 6.4 km/h 54% 0.0 mm 39 W/m2
09:06 19.5 °C 10.2 °C 1021.3 hPa WNW 1.4 km/h 8 km/h 55% 0.0 mm 40 W/m2
09:11 19.6 °C 10.3 °C 1021.3 hPa WNW 3.2 km/h 6.4 km/h 55% 0.0 mm 39 W/m2
09:16 19.7 °C 10.1 °C 1021.3 hPa NW 4.7 km/h 8 km/h 54% 0.0 mm 39 W/m2
09:21 19.9 °C 10 °C 1021.3 hPa North 4.7 km/h 9.7 km/h 53% 0.0 mm 40 W/m2
09:26 20 °C 10.1 °C 1021.3 hPa NNW 3.2 km/h 6.4 km/h 53% 0.0 mm 42 W/m2
09:31 20.2 °C 10.3 °C 1021.3 hPa WNW 6.4 km/h 9.7 km/h 53% 0.0 mm 42 W/m2
09:36 20.4 °C 10.2 °C 1021.3 hPa NW 3.2 km/h 6.4 km/h 52% 0.0 mm 42 W/m2
09:41 20.7 °C 10.5 °C 1021.3 hPa East 3.2 km/h 6.4 km/h 52% 0.0 mm 42 W/m2
09:46 20.9 °C 10.1 °C 1021.3 hPa ENE 1.4 km/h 11.3 km/h 50% 0.0 mm 44 W/m2
09:51 21.2 °C 10.4 °C 1021.3 hPa West 6.4 km/h 12.9 km/h 50% 0.0 mm 42 W/m2
09:56 21.4 °C 10.5 °C 1021.7 hPa ENE 3.2 km/h 4.8 km/h 50% 0.0 mm 44 W/m2
10:01 21.7 °C 10.5 °C 1021.7 hPa NNW 1.4 km/h 12.9 km/h 49% 0.0 mm 49 W/m2
10:06 21.9 °C 10.4 °C 1021.7 hPa NNW 4.7 km/h 6.4 km/h 48% 0.0 mm 53 W/m2
10:11 22.2 °C 10.4 °C 1021.7 hPa Calm   6.4 km/h 47% 0.0 mm 176 W/m2
10:16 22.2 °C 10.4 °C 1021.7 hPa NW 1.4 km/h 4.8 km/h 47% 0.0 mm 399 W/m2
10:21 22.4 °C 10.5 °C 1021.7 hPa WNW 3.2 km/h 4.8 km/h 47% 0.0 mm 543 W/m2
10:26 22.8 °C 10.6 °C 1021.7 hPa NNW 9.7 km/h 11.3 km/h 46% 0.0 mm 575 W/m2
10:31 22.9 °C 10.3 °C 1021.7 hPa ENE 3.2 km/h 6.4 km/h 45% 0.0 mm 584 W/m2
10:36 23.2 °C 10.6 °C 1021.7 hPa NNE 4.7 km/h 14.5 km/h 45% 0.0 mm 613 W/m2
10:41 23.2 °C 10.6 °C 1021.7 hPa North 7.9 km/h 12.9 km/h 45% 0.0 mm 622 W/m2
10:46 23.3 °C 10.4 °C 1021.7 hPa WNW 1.4 km/h 8 km/h 44% 0.0 mm 636 W/m2
10:51 23.6 °C 11 °C 1021.7 hPa East 14.3 km/h 16.1 km/h 45% 0.0 mm 652 W/m2
10:56 23.8 °C 10.1 °C 1021.7 hPa NNW 7.9 km/h 12.9 km/h 42% 0.0 mm 512 W/m2
11:01 23.7 °C 10.4 °C 1021.7 hPa East 9.7 km/h 12.9 km/h 43% 0.0 mm 566 W/m2
11:06 23.8 °C 10.5 °C 1021.7 hPa NW 4.7 km/h 12.9 km/h 43% 0.0 mm 612 W/m2
11:11 24.1 °C 10.4 °C 1021.7 hPa SW 3.2 km/h 12.9 km/h 42% 0.0 mm 656 W/m2
11:16 24.6 °C 10.5 °C 1021.7 hPa ESE 7.9 km/h 19.3 km/h 41% 0.0 mm 710 W/m2
11:21 24.7 °C 10.2 °C 1021.7 hPa NNW 4.7 km/h 9.7 km/h 40% 0.0 mm 682 W/m2
11:26 24.8 °C 10.3 °C 1021.3 hPa NE 1.4 km/h 19.3 km/h 40% 0.0 mm 687 W/m2
11:31 25.3 °C 10.3 °C 1021.3 hPa West 11.1 km/h 17.7 km/h 39% 0.0 mm 693 W/m2
11:36 25.3 °C 10 °C 1021.3 hPa NNE 7.9 km/h 17.7 km/h 38% 0.0 mm 652 W/m2
11:41 25.3 °C 9.6 °C 1021.3 hPa East 14.3 km/h 17.7 km/h 37% 0.0 mm 700 W/m2
11:46 25.4 °C 9.7 °C 1021.3 hPa ENE 4.7 km/h 12.9 km/h 37% 0.0 mm 708 W/m2
11:51 25.6 °C 9.8 °C 1021.3 hPa SSW 4.7 km/h 16.1 km/h 37% 0.0 mm 684 W/m2
11:56 25.8 °C 9.6 °C 1021.3 hPa NW 4.7 km/h 8 km/h 36% 0.0 mm 666 W/m2
12:01 25.8 °C 9.6 °C 1021.3 hPa NNW 6.4 km/h 12.9 km/h 36% 0.0 mm 633 W/m2
12:06 25.7 °C 9.5 °C 1021.3 hPa NE 4.7 km/h 8 km/h 36% 0.0 mm 635 W/m2
12:11 25.8 °C 9.6 °C 1021.3 hPa NE 6.4 km/h 14.5 km/h 36% 0.0 mm 742 W/m2
12:16 26.1 °C 9.9 °C 1021.3 hPa East 14.3 km/h 14.5 km/h 36% 0.0 mm 726 W/m2
12:21 26.3 °C 10 °C 1021.3 hPa ESE 6.4 km/h 12.9 km/h 36% 0.0 mm 761 W/m2
12:26 26.4 °C 9.7 °C 1021.3 hPa East 9.7 km/h 12.9 km/h 35% 0.0 mm 775 W/m2
12:31 26.7 °C 9.5 °C 1021.0 hPa East 11.1 km/h 24.1 km/h 34% 0.0 mm 777 W/m2
12:36 26.7 °C 10 °C 1021.0 hPa NE 4.7 km/h 4.8 km/h 35% 0.0 mm 786 W/m2
12:41 26.8 °C 10.1 °C 1021.0 hPa NNW 1.4 km/h 6.4 km/h 35% 0.0 mm 814 W/m2
12:46 26.9 °C 9.7 °C 1021.0 hPa NNW 3.2 km/h 8 km/h 34% 0.0 mm 773 W/m2
12:51 27.1 °C 10.3 °C 1021.0 hPa ENE 3.2 km/h 8 km/h 35% 0.0 mm 786 W/m2
12:56 27.3 °C 9.6 °C 1021.0 hPa SE 3.2 km/h 8 km/h 33% 0.0 mm 821 W/m2
13:01 27.6 °C 9.9 °C 1021.0 hPa NNW 3.2 km/h 14.5 km/h 33% 0.0 mm 726 W/m2
13:06 27.7 °C 10 °C 1020.7 hPa ENE 6.4 km/h 19.3 km/h 33% 0.0 mm 807 W/m2
13:11 27.5 °C 10.2 °C 1020.7 hPa East 11.1 km/h 11.3 km/h 34% 0.0 mm 809 W/m2
13:16 27.6 °C 9.9 °C 1020.7 hPa NNW 4.7 km/h 19.3 km/h 33% 0.0 mm 826 W/m2
13:21 27.7 °C 10 °C 1020.7 hPa North 4.7 km/h 8 km/h 33% 0.0 mm 823 W/m2
13:26 27.8 °C 10.1 °C 1020.7 hPa SW 3.2 km/h 14.5 km/h 33% 0.0 mm 810 W/m2
13:31 27.9 °C 9.7 °C 1020.7 hPa WNW 1.4 km/h 12.9 km/h 32% 0.0 mm 826 W/m2
13:35 27.7 °C 10 °C 1020.7 hPa NNE 4.7 km/h 17.7 km/h 33% 0.0 mm 846 W/m2
13:40 27.8 °C 10.5 °C 1020.7 hPa NE 11.1 km/h 14.5 km/h 34% 0.0 mm 831 W/m2
13:45 27.8 °C 9.6 °C 1020.7 hPa NNE 3.2 km/h 6.4 km/h 32% 0.0 mm 833 W/m2
13:50 27.8 °C 9.6 °C 1020.7 hPa Calm   14.5 km/h 32% 0.0 mm 809 W/m2
13:56 27.9 °C 9.7 °C 1020.7 hPa ESE 4.7 km/h 12.9 km/h 32% 0.0 mm 816 W/m2
14:01 28.1 °C 10.3 °C 1020.7 hPa NE 1.4 km/h 6.4 km/h 33% 0.0 mm 833 W/m2
14:06 28.2 °C 9.9 °C 1020.7 hPa West 3.2 km/h 6.4 km/h 32% 0.0 mm 831 W/m2
14:11 28.2 °C 9.9 °C 1020.7 hPa East 4.7 km/h 16.1 km/h 32% 0.0 mm 796 W/m2
14:16 28.3 °C 9.6 °C 1020.3 hPa NNW 7.9 km/h 12.9 km/h 31% 0.0 mm 835 W/m2
14:21 28.3 °C 9.6 °C 1020.7 hPa NNE 11.1 km/h 16.1 km/h 31% 0.0 mm 824 W/m2
14:26 28.2 °C 9.9 °C 1020.3 hPa SSE 4.7 km/h 8 km/h 32% 0.0 mm 844 W/m2
14:31 28.2 °C 9.9 °C 1020.3 hPa East 4.7 km/h 16.1 km/h 32% 0.0 mm 840 W/m2
14:36 28.4 °C 10.1 °C 1020.3 hPa ESE 3.2 km/h 12.9 km/h 32% 0.0 mm 838 W/m2
14:41 28.5 °C 9.7 °C 1020.3 hPa ENE 1.4 km/h 16.1 km/h 31% 0.0 mm 838 W/m2
14:46 28.7 °C 9.9 °C 1020.3 hPa ESE 4.7 km/h 8 km/h 31% 0.0 mm 835 W/m2
14:51 28.6 °C 9.8 °C 1020.3 hPa NNW 4.7 km/h 9.7 km/h 31% 0.0 mm 831 W/m2
14:56 28.6 °C 9.8 °C 1020.3 hPa ENE 3.2 km/h 6.4 km/h 31% 0.0 mm 830 W/m2
15:01 28.7 °C 9.9 °C 1020.0 hPa ESE 9.7 km/h 9.7 km/h 31% 0.0 mm 831 W/m2
15:06 28.9 °C 10.1 °C 1020.3 hPa East 4.7 km/h 12.9 km/h 31% 0.0 mm 831 W/m2
15:11 28.9 °C 10.1 °C 1020.3 hPa ESE 9.7 km/h 14.5 km/h 31% 0.0 mm 816 W/m2
15:16 28.9 °C 10.1 °C 1020.0 hPa NNE 1.4 km/h 6.4 km/h 31% 0.0 mm 814 W/m2
15:21 29 °C 10.2 °C 1020.0 hPa North 6.4 km/h 9.7 km/h 31% 0.0 mm 810 W/m2
15:26 29.2 °C 10.3 °C 1020.0 hPa SE 1.4 km/h 6.4 km/h 31% 0.0 mm 788 W/m2
15:31 29.4 °C 10 °C 1020.0 hPa NNW 1.4 km/h 14.5 km/h 30% 0.0 mm 784 W/m2
15:36 29.4 °C 10 °C 1020.0 hPa NNW 6.4 km/h 14.5 km/h 30% 0.0 mm 786 W/m2
15:41 29.3 °C 9.9 °C 1020.0 hPa ENE 1.4 km/h 9.7 km/h 30% 0.0 mm 780 W/m2
15:46 29.4 °C 10 °C 1020.0 hPa Calm   11.3 km/h 30% 0.0 mm 768 W/m2
15:51 29.6 °C 10.2 °C 1020.0 hPa NW 3.2 km/h 4.8 km/h 30% 0.0 mm 759 W/m2
15:56 29.7 °C 9.8 °C 1019.6 hPa Calm   8 km/h 29% 0.0 mm 754 W/m2
16:01 29.6 °C 10.2 °C 1019.6 hPa WNW 6.4 km/h 8 km/h 30% 0.0 mm 745 W/m2
16:06 29.7 °C 10.3 °C 1019.6 hPa Calm   6.4 km/h 30% 0.0 mm 737 W/m2
16:11 29.8 °C 10.4 °C 1019.6 hPa NNW 4.7 km/h 8 km/h 30% 0.0 mm 726 W/m2
16:16 29.8 °C 10.4 °C 1019.6 hPa NE 1.4 km/h 4.8 km/h 30% 0.0 mm 719 W/m2
16:21 29.9 °C 9.9 °C 1019.6 hPa NE 4.7 km/h 11.3 km/h 29% 0.0 mm 691 W/m2
16:26 29.8 °C 9.9 °C 1019.6 hPa ESE 3.2 km/h 12.9 km/h 29% 0.0 mm 691 W/m2
16:31 29.9 °C 10.4 °C 1019.6 hPa NE 7.9 km/h 16.1 km/h 30% 0.0 mm 686 W/m2
16:36 29.9 °C 9.9 °C 1019.6 hPa ESE 3.2 km/h 11.3 km/h 29% 0.0 mm 670 W/m2
16:41 29.8 °C 9.9 °C 1019.6 hPa NW 3.2 km/h 14.5 km/h 29% 0.0 mm 663 W/m2
16:46 29.6 °C 9.7 °C 1019.6 hPa NW 3.2 km/h 22.5 km/h 29% 0.0 mm 650 W/m2
16:51 29.9 °C 9.9 °C 1019.6 hPa ENE 3.2 km/h 6.4 km/h 29% 0.0 mm 649 W/m2
16:56 30.1 °C 10.1 °C 1019.6 hPa SE 6.4 km/h 22.5 km/h 29% 0.0 mm 640 W/m2
17:01 30.2 °C 10.2 °C 1019.6 hPa NNW 3.2 km/h 6.4 km/h 29% 0.0 mm 629 W/m2
17:06 30.6 °C 10 °C 1019.6 hPa ENE 3.2 km/h 8 km/h 28% 0.0 mm 612 W/m2
17:11 30.6 °C 10.5 °C 1019.6 hPa SE 6.4 km/h 14.5 km/h 29% 0.0 mm 601 W/m2
17:16 30.3 °C 10.3 °C 1019.6 hPa East 4.7 km/h 4.8 km/h 29% 0.0 mm 566 W/m2
17:21 30.3 °C 10.3 °C 1019.6 hPa NNW 3.2 km/h 12.9 km/h 29% 0.0 mm 545 W/m2
17:26 30.2 °C 10.2 °C 1019.6 hPa NNW 6.4 km/h 11.3 km/h 29% 0.0 mm 555 W/m2
17:31 30.3 °C 10.3 °C 1019.6 hPa ENE 1.4 km/h 6.4 km/h 29% 0.0 mm 548 W/m2
17:36 30.3 °C 9.8 °C 1019.6 hPa SSE 1.4 km/h 12.9 km/h 28% 0.0 mm 536 W/m2
17:41 30.1 °C 9.6 °C 1019.6 hPa ENE 6.4 km/h 14.5 km/h 28% 0.0 mm 522 W/m2
17:46 29.9 °C 9.9 °C 1019.6 hPa NNW 7.9 km/h 9.7 km/h 29% 0.0 mm 510 W/m2
17:51 30.1 °C 9.6 °C 1019.6 hPa NNW 4.7 km/h 14.5 km/h 28% 0.0 mm 492 W/m2
17:56 30.2 °C 9.7 °C 1019.6 hPa West 9.7 km/h 11.3 km/h 28% 0.0 mm 482 W/m2
18:01 30.2 °C 9.7 °C 1019.6 hPa North 9.7 km/h 12.9 km/h 28% 0.0 mm 469 W/m2
18:06 30.3 °C 9.8 °C 1019.6 hPa SSW 3.2 km/h 9.7 km/h 28% 0.0 mm 455 W/m2
18:11 30.3 °C 9.8 °C 1019.3 hPa WNW 1.4 km/h 4.8 km/h 28% 0.0 mm 443 W/m2
18:16 30.1 °C 10.1 °C 1019.3 hPa WNW 4.7 km/h 8 km/h 29% 0.0 mm 431 W/m2
18:21 30.1 °C 10.1 °C 1019.3 hPa SSE 3.2 km/h 9.7 km/h 29% 0.0 mm 408 W/m2
18:26 30.2 °C 10.2 °C 1019.3 hPa SE 1.4 km/h 9.7 km/h 29% 0.0 mm 381 W/m2
18:31 30.2 °C 9.7 °C 1019.3 hPa NE 3.2 km/h 6.4 km/h 28% 0.0 mm 369 W/m2
18:36 30.1 °C 9.6 °C 1019.3 hPa ENE 6.4 km/h 6.4 km/h 28% 0.0 mm 360 W/m2
18:41 29.9 °C 9.4 °C 1019.3 hPa NW 6.4 km/h 14.5 km/h 28% 0.0 mm 350 W/m2
18:46 29.9 °C 9.4 °C 1019.3 hPa NW 6.4 km/h 12.9 km/h 28% 0.0 mm 339 W/m2
18:51 29.9 °C 9.9 °C 1019.3 hPa NNW 1.4 km/h 14.5 km/h 29% 0.0 mm 322 W/m2
18:56 30 °C 9.5 °C 1019.3 hPa NW 1.4 km/h 1.6 km/h 28% 0.0 mm 301 W/m2
19:01 30.1 °C 9.6 °C 1019.3 hPa WSW 1.4 km/h 12.9 km/h 28% 0.0 mm 274 W/m2
19:06 30.1 °C 9.6 °C 1019.3 hPa West 3.2 km/h 6.4 km/h 28% 0.0 mm 225 W/m2
19:11 30.1 °C 9.6 °C 1019.3 hPa East 1.4 km/h 9.7 km/h 28% 0.0 mm 49 W/m2
19:16 29.9 °C 9.9 °C 1019.3 hPa South 3.2 km/h 6.4 km/h 29% 0.0 mm 47 W/m2
19:21 29.9 °C 9.9 °C 1019.3 hPa Calm   4.8 km/h 29% 0.0 mm 44 W/m2
19:26 29.9 °C 9.9 °C 1019.3 hPa SW 3.2 km/h 6.4 km/h 29% 0.0 mm 40 W/m2
19:31 30 °C 9.5 °C 1019.3 hPa NNE 3.2 km/h 6.4 km/h 28% 0.0 mm 39 W/m2
19:36 29.8 °C 9.3 °C 1019.3 hPa NW 1.4 km/h 3.2 km/h 28% 0.0 mm 37 W/m2
19:41 29.6 °C 9.2 °C 1019.3 hPa West 3.2 km/h 9.7 km/h 28% 0.0 mm 35 W/m2
19:46 29.4 °C 9.5 °C 1019.3 hPa West 1.4 km/h 6.4 km/h 29% 0.0 mm 33 W/m2
19:51 29.3 °C 9.4 °C 1019.6 hPa South 3.2 km/h 9.7 km/h 29% 0.0 mm 32 W/m2
19:56 29.2 °C 9.3 °C 1019.6 hPa Calm   9.7 km/h 29% 0.0 mm 30 W/m2
20:01 28.9 °C 9.1 °C 1019.6 hPa NNW 1.4 km/h 11.3 km/h 29% 0.0 mm 28 W/m2
20:06 28.7 °C 8.9 °C 1019.6 hPa SSW 1.4 km/h 6.4 km/h 29% 0.0 mm 28 W/m2
20:11 28.6 °C 8.8 °C 1019.6 hPa South 3.2 km/h 4.8 km/h 29% 0.0 mm 26 W/m2
20:16 28.4 °C 8.7 °C 1019.6 hPa North 3.2 km/h 6.4 km/h 29% 0.0 mm 25 W/m2
20:21 28.2 °C 9 °C 1019.6 hPa WNW 3.2 km/h 3.2 km/h 30% 0.0 mm 21 W/m2
20:26 27.9 °C 8.7 °C 1019.6 hPa Calm   6.4 km/h 30% 0.0 mm 18 W/m2
20:31 27.7 °C 9 °C 1019.6 hPa SE 3.2 km/h 9.7 km/h 31% 0.0 mm 16 W/m2
20:36 27.4 °C 8.8 °C 1019.6 hPa NNW 1.4 km/h 3.2 km/h 31% 0.0 mm 16 W/m2
20:41 27.2 °C 8.6 °C 1020.0 hPa NE 1.4 km/h 6.4 km/h 31% 0.0 mm 12 W/m2
20:46 27.1 °C 8.5 °C 1020.0 hPa NE 1.4 km/h 6.4 km/h 31% 0.0 mm 11 W/m2
20:51 26.9 °C 8.8 °C 1020.0 hPa ENE 3.2 km/h 6.4 km/h 32% 0.0 mm 9 W/m2
20:56 26.7 °C 8.6 °C 1020.0 hPa ESE 1.4 km/h 1.6 km/h 32% 0.0 mm 7 W/m2
21:01 26.6 °C 8.5 °C 1020.0 hPa NNW 1.4 km/h 3.2 km/h 32% 0.0 mm 5 W/m2
21:06 26.3 °C 8.7 °C 1020.3 hPa NNW 1.4 km/h 4.8 km/h 33% 0.0 mm 0 W/m2
21:11 26.2 °C 8.7 °C 1020.3 hPa Calm   1.6 km/h 33% 0.0 mm 0 W/m2
21:16 26 °C 8.9 °C 1020.3 hPa NW 3.2 km/h 4.8 km/h 34% 0.0 mm 0 W/m2
21:21 25.8 °C 9.2 °C 1020.7 hPa WNW 3.2 km/h 4.8 km/h 35% 0.0 mm 0 W/m2
21:26 25.5 °C 8.9 °C 1020.7 hPa Calm   6.4 km/h 35% 0.0 mm 0 W/m2
21:31 25.3 °C 9.2 °C 1020.7 hPa WNW 1.4 km/h 6.4 km/h 36% 0.0 mm 0 W/m2
21:36 25.1 °C 9.4 °C 1020.7 hPa NNW 3.2 km/h 4.8 km/h 37% 0.0 mm 0 W/m2
21:41 24.8 °C 9.5 °C 1020.7 hPa NNE 4.7 km/h 6.4 km/h 38% 0.0 mm 0 W/m2
21:46 24.7 °C 9.8 °C 1020.7 hPa NW 1.4 km/h 4.8 km/h 39% 0.0 mm 0 W/m2
21:51 24.5 °C 9.6 °C 1021.0 hPa NNW 7.9 km/h 9.7 km/h 39% 0.0 mm 0 W/m2
21:56 24.4 °C 9.9 °C 1021.0 hPa WSW 1.4 km/h 4.8 km/h 40% 0.0 mm 0 W/m2
22:02 24.2 °C 10.1 °C 1021.0 hPa North 1.4 km/h 12.9 km/h 41% 0.0 mm 0 W/m2
22:07 24.1 °C 10 °C 1021.0 hPa SW 4.7 km/h 6.4 km/h 41% 0.0 mm 0 W/m2
22:12 23.9 °C 9.8 °C 1021.0 hPa WNW 1.4 km/h 12.9 km/h 41% 0.0 mm 0 W/m2
22:17 23.8 °C 10.1 °C 1021.3 hPa NW 1.4 km/h 8 km/h 42% 0.0 mm 0 W/m2
22:22 23.7 °C 10 °C 1021.3 hPa NNW 4.7 km/h 4.8 km/h 42% 0.0 mm 0 W/m2
22:27 23.6 °C 10.3 °C 1021.3 hPa Calm   3.2 km/h 43% 0.0 mm 0 W/m2
22:32 23.5 °C 10.2 °C 1021.3 hPa North 1.4 km/h 3.2 km/h 43% 0.0 mm 0 W/m2
22:37 23.4 °C 10.5 °C 1021.3 hPa NNW 1.4 km/h 3.2 km/h 44% 0.0 mm 0 W/m2
22:42 23.3 °C 10.4 °C 1021.3 hPa NNW 3.2 km/h 4.8 km/h 44% 0.0 mm 0 W/m2
22:47 23.1 °C 10.2 °C 1021.3 hPa West 4.7 km/h 4.8 km/h 44% 0.0 mm 0 W/m2
22:52 23.1 °C 10.2 °C 1021.3 hPa NNE 8 km/h 8 km/h 44% 0.0 mm 0 W/m2
22:57 23 °C 10.4 °C 1021.3 hPa West 3.2 km/h 9.7 km/h 45% 0.0 mm 0 W/m2
23:02 22.9 °C 10.3 °C 1021.3 hPa Calm   6.4 km/h 45% 0.0 mm 0 W/m2
23:07 22.8 °C 10.2 °C 1021.3 hPa NW 3.2 km/h 8 km/h 45% 0.0 mm 0 W/m2
23:12 22.7 °C 10.5 °C 1021.3 hPa West 3.2 km/h 4.8 km/h 46% 0.0 mm 0 W/m2
23:17 22.6 °C 10.4 °C 1021.3 hPa West 4.7 km/h 8 km/h 46% 0.0 mm 0 W/m2
23:22 22.5 °C 10.6 °C 1021.7 hPa NW 4.7 km/h 4.8 km/h 47% 0.0 mm 0 W/m2
23:27 22.4 °C 10.5 °C 1021.3 hPa NNE 4.7 km/h 12.9 km/h 47% 0.0 mm 0 W/m2
23:32 22.3 °C 10.8 °C 1021.7 hPa West 6.4 km/h 6.4 km/h 48% 0.0 mm 0 W/m2
23:37 22.2 °C 10.7 °C 1021.7 hPa North 4.7 km/h 12.9 km/h 48% 0.0 mm 0 W/m2
23:42 22.2 °C 11 °C 1021.7 hPa WNW 4.7 km/h 4.8 km/h 49% 0.0 mm 0 W/m2
23:47 22.1 °C 10.9 °C 1021.7 hPa ESE 1.4 km/h 9.7 km/h 49% 0.0 mm 0 W/m2
23:52 22 °C 11.1 °C 1021.7 hPa North 4.7 km/h 12.9 km/h 50% 0.0 mm 0 W/m2
23:57 21.9 °C 11 °C 1021.7 hPa NW 1.4 km/h 8 km/h 50% 0.0 mm 0 W/m2
Juneau County Weather
Compliments of Weather Underground - 4 mb